Regional Weather Roundup
Issued by NWS

Home | Current Version | Previous Version | Text Only | Print | Product List | Glossary On
Versions: 1 2 3 4 5 6 7 8 9 10 11 12 13 14 15 16 17 18 19 20 21 22 23 24 25 26 27 28
000
ASUS44 KLIX 241113
RWRLA
LOUISIANA WEATHER ROUNDUP
NATIONAL WEATHER SERVICE NEW ORLEANS LA
500 AM CST TUE JAN 24 2017

NOTE: "FAIR" INDICATES FEW OR NO CLOUDS BELOW 12,000 FEET WITH NO
      SIGNIFICANT WEATHER AND/OR OBSTRUCTIONS TO VISIBILITY.
      SKY/WX - SKY CONDITION AND SIGNIFICANT WEATHER.
      TMP - AIR TEMPERATURE.    DP   - DEWPOINT TEMPERATURE.
      RH  - RELATIVE HUMIDITY.  PRES - PRESSURE.
      HX  - HEAT INDEX.         WCI  - WIND CHILL INDEX.

*  THESE STATIONS ARE NOT NWS OR FAA STATIONS AND ARE NOT UNDER
   NWS QUALITY CONTROL.

LAZ040-048-061>063-065-066-069-241200-
SOUTHEAST LOUISIANA

CITY           SKY/WX    TMP DP  RH WIND       PRES   REMARKS
N.O. AUDUBON   NOT AVBL
N.O. INTL ARPT CLEAR     48  46  93 CALM      29.91S
N.O. LAKEFRONT CLEAR     57  50  77 N8        29.92R
N.O. DOWNTOWN*   N/A     54  47  77 CALM      29.92R
RESERVE*       FAIR      48  46  94 CALM      29.91S FOG
SLIDELL        CLEAR     43  41  93 CALM      29.91R
BATON ROUGE    CLEAR     42  41  96 NE3       29.91R
BOOTHVILLE     CLEAR     51  49  92 CALM      29.92S
BELLE CHASSE   CLEAR     44  43  96 CALM      29.91R
BOGALUSA*      FAIR      42  39  91 N3        29.94R
GALLIANO*      SUNNY     44  41  92 CALM      29.91R
NEW ROADS*     FAIR      42  42 100 CALM      29.91R
GONZALES*      FAIR      44  44 100 CALM      29.91R
HAMMOND*       CLEAR     41  37  87 CALM      29.92R
HOUMA*         FOG       46  46 100 CALM      29.91R VSB 1/2
PORT FOURCHON* SUNNY     57  52  82 CALM      29.90F

$$

LAZ041-044-053-054-241200-
SOUTHWEST LOUISIANA

CITY           SKY/WX    TMP DP  RH WIND       PRES   REMARKS
LAKE CHARLES   FOG       47  47 100 CALM      29.86F VSB 1/2
LAFAYETTE      CLEAR     47  46  97 CALM      29.90R FOG
PATTERSON      FOG       45  45 100 CALM      29.91S VSB 1/2
SALT POINT     NOT AVBL
NEW IBERIA     CLEAR     44  41  89 CALM      29.90S
CHENAULT AIRPK PTCLDY    45  44  99 E3        29.87S

$$

LAZ027-028-241200-
CENTRAL LOUISIANA

CITY           SKY/WX    TMP DP  RH WIND       PRES   REMARKS
FORT POLK      CLEAR     42  41  95 E5        29.85S
ALEXANDRIA INT CLEAR     44  42  93 E6        29.86F
ALEXANDRIA     CLEAR     38  38 100 CALM      29.88S

$$

LAZ001-002-241200-
NORTHWEST LOUISIANA

CITY           SKY/WX    TMP DP  RH WIND       PRES   REMARKS
SHREVEPORT     PTCLDY    45  39  79 SE6       29.81S
BARKSDALE AFB  CLEAR     42  37  81 SE6       29.82F
DTN SHREVEPORT PTCLDY    46  37  71 SE6       29.82F

$$

LAZ014-016-241200-
NORTHEAST LOUISIANA

CITY           SKY/WX    TMP DP  RH WIND       PRES   REMARKS
MONROE         PTCLDY    43  40  89 E5        29.89F
TALLULAH       CLOUDY    39  38  96 E3        29.92S

$$





USA.gov is the U.S. government's official web portal to all federal, state and local government web resources and services.